Weather in Blackheath

Australia     33°37′34″S   150°17′50″E
temp.,
°C
wind,
m/s
gust,
m/s
humid.,
%
clouds,
%
prec.,
mm/h
press.,
hPa
HPBL,
m
6 may, thu
thu601:00+12s1410094 0.4 1014255
04:00+12ssw1699100 1.5 1013413
07:00+12s29100100 2.0 1014738
10:00+13sw21098100 2.8 1012809
13:00+14s21099100 2.9 10101079
16:00+15se41098100 8.6 10111033
19:00+14sse2999100 2.7 10131006
22:00+13ssw25100100 5.8 1012322
7 may, fri
fri701:00+13s28100100 2.6 1011685
04:00+13sw1699100 3.4 1010438
07:00+13wsw1298100 0.1 101175
10:00+15sw139337 0.8 1011328
13:00+18sw267098 0.1 10081121
16:00+16wsw157721 0.1 1009570
19:00+12wnw22936 0.0 101142
22:00+11nw23935 0.0 101256
8 may, sat
sat801:00+10nw22935 0.0 101250
04:00+9wnw2389100 0.0 101259
07:00+9nw2381100 0.0 101564
10:00+17wnw2545100 0.0 1014595
13:00+20w25385 0.0 10131445
16:00+18wnw135670 0.0 101499
19:00+12nw2275100 0.0 101835
22:00+11nw2278100 0.0 101937
9 may, sun
sun901:00+11nw2176100 0.0 101935
04:00+11nw1173100 0.0 101927
07:00+12wnw1171100 0.0 102020
10:00+16w0160100 0.0 1021241
13:00+19e1249100 0.0 10191087
16:00+17e1166100 0.0 101854
19:00+12nnw1183100 0.0 102017
22:00+10nw1186100 0.0 102018
10 may, mon
mon1001:00+9nw218629 0.0 101926
04:00+9nw21865 0.0 101726
07:00+9nw21855 0.0 101833
10:00+18nw135184 0.0 1016614
13:00+20wnw474645 0.0 10131817
16:00+17nw27603 0.0 10121112
19:00+11nw22883 0.0 101445
22:00+10nw2195100 0.0 101433